#timestamp,LO_Frequency,Hit,StdDev 
1512529215.4,286047000.8,N
1512529235.2,286047000.2,N
1512529255.1,286047003.8,N
1512529256.0,286047003.8,N
1512529275.8,286047005.0,N
1512529295.6,286047005.1,N
1512529315.5,286047004.8,N
1512529335.3,286047005.9,N
1512529355.2,286047005.3,N
1512529375.9,286047003.3,N
1512529395.7,286046999.9,N
1512529415.6,286047001.2,N
1512529435.4,286046999.7,N
1512529455.2,286047002.4,N
1512529475.1,286047000.4,N
1512529476.0,286047000.4,N
1512529495.8,286047002.8,N
1512529515.7,286046998.6,N
1512529535.5,286046998.5,N
1512529555.3,286047002.3,N
1512529575.2,286047000.1,N
1512529595.0,286046999.7,N
1512529595.9,286046999.7,N
1512529615.8,286046998.1,N
1512529635.6,286046997.1,N
1512529655.4,286046995.3,N
1512529675.3,286046997.5,N
1512529695.1,286046997.7,N
1512529715.9,286046998.2,N
1512529735.7,286046999.3,N
1512529755.5,286047000.0,N
1512529775.4,286046999.7,N
1512529795.2,286047002.8,N
1512529815.0,286047000.3,N
1512529815.9,286047000.3,N
1512529835.8,286047004.1,N
1512529855.6,286047003.9,N
1512529875.5,286047002.6,N
1512529895.3,286047002.0,N
1512529915.1,286047003.2,N
1512529935.9,286047001.8,N
1512529955.7,286047006.0,N
1512529975.5,286047007.5,Y
1512529995.4,286047005.5,P
1512530015.2,286047006.8,N
1512530035.1,286047009.1,P
1512530036.0,286047009.1,N
1512530055.8,286047005.1,N
1512530075.6,286047003.5,N
1512530095.5,286046998.3,N
1512530115.3,286047001.0,N
1512530135.2,286047002.4,N
1512530155.9,286046999.8,N
1512530175.7,286047000.4,N
1512530195.6,286046998.2,N
1512530215.4,286046998.1,N
1512530235.2,286047000.3,N
1512530255.1,286047004.0,N
1512530256.0,286047004.0,N
1512530275.8,286046999.8,N
1512530295.7,286046998.5,N
1512530315.5,286047002.5,N
1512530335.3,286047001.4,N
1512530355.2,286047003.6,N
1512530375.0,286047002.7,N
1512530375.9,286047002.7,N
1512530395.8,286047002.2,N
1512530415.6,286047002.5,N
1512530435.4,286047000.7,N
1512530455.3,286047000.8,N
1512530475.1,286046998.1,N
1512530495.8,286046998.7,N
1512530515.7,286047004.4,N
1512530535.5,286047002.6,N
1512530555.4,286047001.7,N
1512530575.2,286047003.3,N
1512530595.0,286047001.8,N
1512530595.9,286047001.8,N
1512530615.8,286047001.4,N
1512530635.6,286047003.5,N
1512530655.5,286047005.9,Y
1512530675.3,286047002.2,P
1512530695.1,286047004.0,P
1512530715.9,286047005.3,P
1512530735.7,286047009.2,Y
1512530755.5,286047005.1,P
1512530775.4,286047005.5,P
1512530795.2,286047001.3,N
1512530815.1,286047004.4,N
1512530816.0,286047004.4,N
1512530835.8,286047003.5,N
1512530855.6,286047003.0,N
1512530875.5,286047005.8,Y
1512530895.3,286046996.9,P
1512530915.2,286046998.5,N
1512530935.9,286047002.7,N
1512530955.7,286047000.0,N
1512530975.6,286046998.5,N
1512530995.4,286046996.8,N
1512531015.2,286046997.6,N
1512531035.1,286046996.6,N
1512531036.0,286046996.6,N
1512531055.8,286047000.0,N
1512531075.7,286046999.9,N
1512531095.5,286047000.5,N
1512531115.3,286046996.9,N
1512531135.2,286046999.5,N
1512531155.0,286046996.8,N
1512531155.9,286046996.8,N
1512531175.7,286046994.2,N
1512531195.6,286046994.8,N
1512531215.4,286046992.3,Y
1512531235.3,286046996.4,P
1512531255.1,286046994.8,P
1512531275.8,286046995.6,P
1512531295.7,286046999.4,N
1512531315.5,286046999.2,N
1512531335.4,286047001.0,N
1512531355.2,286047000.7,N
1512531375.0,286047000.9,N
1512531375.9,286047000.9,N
1512531395.8,286046998.1,N
1512531415.6,286047002.0,N
1512531435.4,286047002.6,N
1512531455.3,286047000.0,N
1512531475.1,286047000.6,N
1512531495.9,286047000.1,N
1512531515.7,286046999.9,N
1512531535.5,286047001.5,N
1512531555.4,286047002.1,N
1512531575.2,286047002.4,N
1512531595.0,286047003.5,N
1512531596.0,286047003.5,N
1512531615.8,286047003.8,N
1512531635.6,286047002.4,N
1512531655.5,286046999.6,N
1512531675.3,286046996.5,N
1512531695.1,286046998.9,N
1512531715.9,286046998.4,N
1512531735.7,286046999.8,N
1512531755.6,286046998.9,N
1512531775.4,286046999.1,N
1512531795.2,286046997.7,N
1512531815.1,286046996.6,N
1512531816.0,286046996.6,N
1512531835.8,286046998.4,N
1512531855.6,286046999.3,N
1512531875.5,286046996.9,N
1512531895.3,286046998.7,N
1512531915.2,286046999.8,N
1512531935.9,286047002.1,N
1512531955.7,286047004.0,N
1512531975.6,286047002.6,N
1512531995.4,286047002.7,N
1512532015.2,286047003.8,N
1512532035.1,286047003.2,N
1512532036.0,286047003.2,N
1512532055.8,286046999.7,N
1512532075.7,286047000.2,N
1512532095.5,286047001.6,N
1512532115.3,286047003.3,N
1512532135.2,286047003.9,N
1512532155.0,286047005.2,N
1512532155.9,286047005.2,N
1512532175.8,286047003.5,N
1512532195.6,286047001.3,N
1512532215.4,286046999.9,N
1512532235.3,286047001.0,N
1512532255.1,286047003.5,N
1512532275.8,286047001.3,N
1512532295.7,286047004.0,N
1512532315.5,286047001.6,N
1512532335.4,286047003.9,N
1512532355.2,286047003.5,N
1512532375.0,286047004.6,N
1512532375.9,286047004.6,N
1512532395.8,286047005.9,N
1512532415.6,286047004.1,N
1512532435.4,286047001.1,N
1512532455.3,286046998.1,N
1512532475.1,286047002.3,N
1512532495.9,286047001.4,N
1512532515.7,286047001.6,N
1512532535.5,286047004.0,N
1512532555.4,286047001.4,N
1512532575.2,286047002.0,N
1512532595.1,286047001.3,N
1512532596.0,286047001.3,N
1512532615.8,286047000.6,N
1512532635.6,286047000.4,N
1512532655.5,286047000.0,N
1512532675.3,286046997.2,N
1512532695.1,286046998.5,N
1512532715.9,286047002.5,N
1512532735.7,286047001.9,N
1512532755.6,286046999.8,N
1512532775.4,286047001.0,N
1512532795.2,286046999.2,N
